DW8108 Weather Reports


Display with metric or nautical units.
time (UTC)temp
F
wind
direction
speed
MPH
gust
MPH
rain 1hr
in
rain 24hr
in
rain mn
in
humidity
%
barometer
mb
20260902203031 95 0.0 6.0 0.00 0.00 0.00 68 1011.9
20260902201519 95 0.0 9.0 0.00 0.00 0.00 64 1012.1
20260902200015 95 0.0 9.0 0.00 0.00 0.00 64 1012.3
20260902194512 94 0.0 8.0 0.00 0.00 0.00 65 1012.4
20260902193009 94 0.0 10.0 0.00 0.00 0.00 65 1012.6
20260902191511 94 0.0 12.0 0.00 0.00 0.00 63 1012.7
20260902190007 93 0.0 10.0 0.00 0.00 0.00 64 1012.8
20260902184513 93 0.0 11.0 0.00 0.00 0.00 64 1013.0
20260902183005 93 0.0 9.0 0.00 0.00 0.00 63 1012.9
20260902181503 93 0.0 9.0 0.00 0.00 0.00 64 1013.0
20260902180100 93 0.0 6.0 0.00 0.00 0.00 67 1013.0
20260902174605 92 0.0 11.0 0.00 0.00 0.00 68 1013.3
20260902173057 92 0.0 8.0 0.00 0.00 0.00 66 1013.4
20260902171602 92 0.0 9.0 0.00 0.00 0.00 66 1013.3
20260902170053 91 0.0 7.0 0.00 0.00 0.00 68 1013.3
20260902164552 91 0.0 8.0 0.00 0.00 0.00 69 1013.4
20260902163102 90 0.0 6.0 0.00 0.00 0.00 73 1013.4
20260902161548 89 0.0 5.0 0.00 0.00 0.00 72 1013.6
20260902160043 88 0.0 5.0 0.00 0.00 0.00 74 1013.6
20260902154542 88 0.0 7.0 0.00 0.00 0.00 73 1013.5
20260902153040 87 0.0 7.0 0.00 0.00 0.00 73 1013.6
20260902151542 86 0.0 8.0 0.00 0.00 0.00 76 1013.5
20260902150032 85 0.0 7.0 0.00 0.00 0.00 79 1013.6
20260902144537 84 0.0 5.0 0.00 0.00 0.00 81 1013.6
20260902143128 82 0.0 5.0 0.00 0.00 0.00 84 1013.6
20260902141524 81 0.0 7.0 0.00 0.00 0.00 86 1013.7
20260902140016 80 0.0 3.0 0.00 0.00 0.00 88 1013.9
20260902133002 77 0.0 7.0 0.00 0.00 0.00 93 1014.2
20260902131604 76 0.0 5.0 0.00 0.00 0.00 95 1014.1
20260902130056 74 0.0 6.0 0.00 0.00 0.00 96 1014.1
20260902124557 73 0.0 3.0 0.00 0.00 0.00 96 1014.1
20260902123115 72 0.0 4.0 0.00 0.00 0.00 96 1014.1
20260902121559 72 0.0 2.0 0.00 0.00 0.00 96 1014.3
20260902120106 71 0.0 1.0 0.00 0.00 0.00 95 1014.3
20260902114552 71 0.0 2.0 0.00 0.00 0.00 95 1014.0
20260902113052 71 0.0 0.0 0.00 0.00 0.00 95 1013.9
20260902111556 71 0.0 0.0 0.00 0.00 0.00 95 1014.0
20260902110046 72 0.0 0.0 0.00 0.00 0.00 94 1014.0
20260902104547 72 0.0 0.0 0.00 0.00 0.00 94 1014.0
20260902103044 72 0.0 1.0 0.00 0.00 0.00 94 1013.9
20260902101549 72 0.0 1.0 0.00 0.00 0.00 94 1013.7
20260902100050 73 0.0 1.0 0.00 0.00 0.00 93 1013.6
20260902094540 73 0.0 2.0 0.00 0.00 0.00 93 1013.6
20260902093039 73 0.0 2.0 0.00 0.00 0.00 93 1013.6
20260902091536 74 0.0 0.0 0.00 0.00 0.00 93 1013.5
20260902090036 74 0.0 2.0 0.00 0.00 0.00 93 1013.4
20260902084536 74 0.0 3.0 0.00 0.00 0.00 93 1013.2
20260902083034 74 0.0 3.0 0.00 0.00 0.00 94 1013.3
20260902081537 74 0.0 7.0 0.00 0.00 0.00 95 1013.2
20260902080034 74 0.0 8.0 0.00 0.00 0.00 96 1013.2
20260902074538 74 0.0 7.0 0.00 0.00 0.00 96 1013.2
20260902073032 73 0.0 6.0 0.00 0.00 0.00 96 1013.2
20260902071531 73 0.0 2.0 0.00 0.00 0.00 96 1013.3
20260902070031 73 0.0 2.0 0.00 0.00 0.00 95 1013.2
20260902064530 73 0.0 3.0 0.00 0.00 0.00 95 1013.2
20260902063039 73 0.0 3.0 0.00 0.00 0.00 95 1013.1
20260902061529 73 0.0 2.0 0.00 0.00 0.00 95 1013.1
20260902060026 73 0.0 0.0 0.00 0.00 0.00 94 1013.2
20260902054529 74 0.0 1.0 0.00 0.00 0.00 94 1013.2
20260902053024 74 0.0 0.0 0.00 0.00 0.00 94 1013.2
20260902051522 74 0.0 0.0 0.00 0.00 0.00 94 1013.3
20260902050049 75 0.0 0.0 0.00 0.00 0.00 93 1013.3
20260902044519 75 0.0 1.0 0.00 0.00 0.00 93 1013.5
20260902043029 75 0.0 0.0 0.00 0.00 0.00 93 1013.4
20260902041518 76 0.0 1.0 0.00 0.00 0.00 93 1013.5
20260902040021 76 0.0 1.0 0.00 0.00 0.00 93 1013.4
20260902034522 77 0.0 0.0 0.00 0.00 0.00 92 1013.5
20260902033016 77 0.0 1.0 0.00 0.00 0.00 92 1013.4
20260902031516 78 0.0 2.0 0.00 0.00 0.00 92 1013.3
20260902030016 78 0.0 4.0 0.00 0.00 0.00 92 1013.3
20260902024516 78 0.0 4.0 0.00 0.00 0.00 92 1013.2
20260902023014 78 0.0 5.0 0.00 0.00 0.00 92 1013.2
20260902021513 79 0.0 4.0 0.00 0.00 0.00 92 1013.2
20260902020014 79 0.0 3.0 0.00 0.00 0.00 91 1013.1
20260902014513 80 0.0 3.0 0.00 0.00 0.00 90 1013.0
20260902013012 81 0.0 3.0 0.00 0.00 0.00 89 1012.9
20260902011513 82 0.0 3.0 0.00 0.00 0.00 87 1012.7
20260902010012 83 0.0 2.0 0.00 0.00 0.00 86 1012.6
20260902004513 84 0.0 3.0 0.00 0.00 0.00 82 1012.5
20260902003018 86 0.0 2.0 0.00 0.00 0.00 81 1012.4
20260902001509 87 0.0 3.0 0.00 0.00 0.00 80 1012.4
20260902000009 88 0.0 3.0 0.00 0.00 0.00 79 1012.6
20260901234508 89 0.0 4.0 0.00 0.00 0.00 77 1012.7
20260901233007 90 0.0 4.0 0.00 0.00 0.00 77 1012.6
20260901231507 92 0.0 2.0 0.00 0.00 0.00 76 1012.5
20260901230007 93 0.0 4.0 0.00 0.00 0.00 73 1012.6
20260901224506 94 0.0 3.0 0.00 0.00 0.00 72 1012.6
20260901223006 95 0.0 5.0 0.00 0.00 0.00 69 1012.6
20260901221506 95 0.0 6.0 0.00 0.00 0.00 67 1012.5
20260901220006 95 0.0 6.0 0.00 0.00 0.00 67 1012.6
20260901214504 95 0.0 6.0 0.00 0.00 0.00 68 1012.5
20260901213004 95 0.0 7.0 0.00 0.00 0.00 66 1012.6
20260901211503 95 0.0 6.0 0.00 0.00 0.00 66 1012.6
20260901210101 94 0.0 5.0 0.00 0.00 0.00 68 1012.7
20260901204559 94 0.0 8.0 0.00 0.00 0.00 68 1012.8